Météo par heure à Jumashuy

Ce jour, 20 Juin, Dimanche

Heure Température Précipitation Vent Pression Humidité
00:00 +27°C° 0 mm 2 m/s 721 mmHg 34%
01:00 +26°C° 0 mm 2 m/s 721 mmHg 35%
02:00 +26°C° 0 mm 1 m/s 721 mmHg 35%
03:00 +26°C° 0 mm 1 m/s 721 mmHg 35%
04:00 +25°C° 0 mm 2 m/s 721 mmHg 35%
05:00 +25°C° 0 mm 2 m/s 721 mmHg 35%
06:00 +27°C° 0 mm 3 m/s 722 mmHg 32%
07:00 +29°C° 0 mm 3 m/s 722 mmHg 28%
08:00 +30°C° 0 mm 4 m/s 722 mmHg 24%
09:00 +33°C° 0 mm 4 m/s 722 mmHg 22%
10:00 +34°C° 0 mm 5 m/s 722 mmHg 20%
11:00 +35°C° 0 mm 5 m/s 722 mmHg 18%
12:00 +36°C° 0 mm 5 m/s 721 mmHg 17%
13:00 +38°C° 0 mm 6 m/s 721 mmHg 15%
14:00 +39°C° 0 mm 6 m/s 720 mmHg 13%
15:00 +39°C° 0 mm 7 m/s 720 mmHg 13%
16:00 +39°C° 0 mm 8 m/s 720 mmHg 13%
17:00 +39°C° 0 mm 9 m/s 720 mmHg 12%
18:00 +37°C° 0 mm 9 m/s 720 mmHg 14%
19:00 +35°C° 0 mm 9 m/s 720 mmHg 15%
20:00 +33°C° 0 mm 8 m/s 721 mmHg 16%
21:00 +32°C° 0 mm 7 m/s 721 mmHg 18%
22:00 +30°C° 0 mm 6 m/s 721 mmHg 19%
23:00 +29°C° 0 mm 5 m/s 721 mmHg 21%

Demain, 21 Juin, Lundi

Heure Température Précipitation Vent Pression Humidité
00:00 +28°C° 0 mm 4 m/s 722 mmHg 23%
01:00 +27°C° 0 mm 3 m/s 722 mmHg 25%
02:00 +27°C° 0 mm 2 m/s 722 mmHg 26%
03:00 +26°C° 0 mm 2 m/s 722 mmHg 28%
04:00 +25°C° 0 mm 3 m/s 722 mmHg 29%
05:00 +24°C° 0 mm 3 m/s 722 mmHg 31%
06:00 +26°C° 0 mm 3 m/s 723 mmHg 27%
07:00 +27°C° 0 mm 3 m/s 723 mmHg 24%
08:00 +29°C° 0 mm 4 m/s 724 mmHg 21%
09:00 +32°C° 0 mm 4 m/s 724 mmHg 20%
10:00 +33°C° 0 mm 3 m/s 724 mmHg 18%
11:00 +35°C° 0 mm 3 m/s 723 mmHg 16%
12:00 +36°C° 0 mm 4 m/s 723 mmHg 14%
13:00 +37°C° 0 mm 4 m/s 722 mmHg 13%
14:00 +40°C° 0 mm 5 m/s 722 mmHg 11%
15:00 +39°C° 0 mm 6 m/s 722 mmHg 11%
16:00 +39°C° 0 mm 7 m/s 722 mmHg 11%
17:00 +39°C° 0 mm 8 m/s 721 mmHg 10%
18:00 +37°C° 0 mm 9 m/s 721 mmHg 11%
19:00 +36°C° 0 mm 10 m/s 721 mmHg 12%
20:00 +33°C° 0 mm 10 m/s 721 mmHg 14%
21:00 +33°C° 0 mm 9 m/s 722 mmHg 14%
22:00 +32°C° 0 mm 9 m/s 722 mmHg 14%
23:00 +31°C° 0 mm 8 m/s 722 mmHg 15%

Après-demain, 22 Juin, Mardi

Heure Température Précipitation Vent Pression Humidité
00:00 +30°C° 0 mm 7 m/s 722 mmHg 16%
01:00 +29°C° 0 mm 6 m/s 722 mmHg 17%
02:00 +28°C° 0 mm 5 m/s 722 mmHg 18%
03:00 +27°C° 0 mm 4 m/s 722 mmHg 19%
04:00 +27°C° 0 mm 3 m/s 722 mmHg 21%
05:00 +26°C° 0 mm 3 m/s 723 mmHg 23%
06:00 +27°C° 0 mm 3 m/s 723 mmHg 21%
07:00 +29°C° 0 mm 3 m/s 724 mmHg 19%
08:00 +30°C° 0 mm 3 m/s 724 mmHg 17%
09:00 +33°C° 0 mm 3 m/s 724 mmHg 15%
10:00 +35°C° 0 mm 3 m/s 724 mmHg 14%
11:00 +36°C° 0 mm 3 m/s 724 mmHg 12%
12:00 +37°C° 0 mm 3 m/s 723 mmHg 12%
13:00 +38°C° 0 mm 4 m/s 723 mmHg 11%
14:00 +41°C° 0 mm 4 m/s 722 mmHg 10%
15:00 +41°C° 0 mm 5 m/s 722 mmHg 10%
16:00 +41°C° 0 mm 6 m/s 721 mmHg 11%
17:00 +41°C° 0 mm 7 m/s 721 mmHg 11%
18:00 +40°C° 0 mm 8 m/s 721 mmHg 13%
19:00 +38°C° 0 mm 8 m/s 721 mmHg 15%
20:00 +37°C° 0 mm 8 m/s 721 mmHg 17%
21:00 +35°C° 0 mm 8 m/s 721 mmHg 18%
22:00 +34°C° 0 mm 7 m/s 721 mmHg 18%
23:00 +33°C° 0 mm 6 m/s 721 mmHg 19%

23 Juin, Mercredi

Heure Température Précipitation Vent Pression Humidité
00:00 +32°C° 0 mm 6 m/s 721 mmHg 20%
01:00 +30°C° 0 mm 6 m/s 722 mmHg 20%
02:00 +30°C° 0 mm 6 m/s 722 mmHg 21%
03:00 +29°C° 0 mm 5 m/s 722 mmHg 22%
04:00 +28°C° 0 mm 4 m/s 722 mmHg 23%
05:00 +27°C° 0 mm 4 m/s 722 mmHg 24%
06:00 +29°C° 0 mm 4 m/s 723 mmHg 22%
07:00 +30°C° 0 mm 5 m/s 723 mmHg 20%
08:00 +32°C° 0 mm 5 m/s 724 mmHg 18%
09:00 +34°C° 0 mm 4 m/s 724 mmHg 16%
10:00 +35°C° 0 mm 4 m/s 723 mmHg 15%
11:00 +37°C° 0 mm 4 m/s 723 mmHg 13%
12:00 +38°C° 0 mm 4 m/s 723 mmHg 12%
13:00 +40°C° 0 mm 4 m/s 722 mmHg 11%
14:00 +41°C° 0 mm 5 m/s 722 mmHg 10%
15:00 +41°C° 0 mm 5 m/s 722 mmHg 10%
16:00 +41°C° 0 mm 6 m/s 722 mmHg 10%
17:00 +41°C° 0 mm 7 m/s 722 mmHg 10%
18:00 +39°C° 0 mm 7 m/s 721 mmHg 11%
19:00 +38°C° 0 mm 8 m/s 721 mmHg 12%
20:00 +35°C° 0 mm 8 m/s 721 mmHg 13%
21:00 +34°C° 0 mm 8 m/s 721 mmHg 14%
22:00 +33°C° 0 mm 7 m/s 722 mmHg 15%
23:00 +32°C° 0 mm 6 m/s 722 mmHg 15%

24 Juin, Jeudi

Heure Température Précipitation Vent Pression Humidité
00:00 +30°C° 0 mm 5 m/s 722 mmHg 16%
01:00 +30°C° 0 mm 4 m/s 722 mmHg 18%
02:00 +29°C° 0 mm 3 m/s 722 mmHg 19%
03:00 +28°C° 0 mm 3 m/s 722 mmHg 20%
04:00 +27°C° 0 mm 3 m/s 722 mmHg 21%
05:00 +26°C° 0 mm 3 m/s 722 mmHg 22%
06:00 +28°C° 0 mm 3 m/s 722 mmHg 20%
07:00 +30°C° 0 mm 4 m/s 723 mmHg 18%
08:00 +32°C° 0 mm 4 m/s 723 mmHg 16%
09:00 +34°C° 0 mm 4 m/s 723 mmHg 14%
10:00 +36°C° 0 mm 4 m/s 723 mmHg 12%
11:00 +38°C° 0 mm 4 m/s 723 mmHg 11%
12:00 +40°C° 0 mm 4 m/s 722 mmHg 10%
13:00 +41°C° 0 mm 4 m/s 721 mmHg 9%
14:00 +42°C° 0 mm 5 m/s 721 mmHg 8%
15:00 +42°C° 0 mm 6 m/s 720 mmHg 8%
16:00 +42°C° 0 mm 6 m/s 720 mmHg 8%
17:00 +43°C° 0 mm 7 m/s 720 mmHg 8%
18:00 +40°C° 0 mm 8 m/s 719 mmHg 9%
19:00 +39°C° 0 mm 8 m/s 719 mmHg 11%
20:00 +37°C° 0 mm 9 m/s 719 mmHg 12%
21:00 +35°C° 0 mm 9 m/s 719 mmHg 12%
22:00 +35°C° 0 mm 8 m/s 719 mmHg 13%
23:00 +34°C° 0 mm 8 m/s 719 mmHg 14%

25 Juin, Vendredi

Heure Température Précipitation Vent Pression Humidité
00:00 +33°C° 0.1 mm 7 m/s 719 mmHg 16%
01:00 +32°C° 0.1 mm 7 m/s 718 mmHg 19%
02:00 +30°C° 0.1 mm 6 m/s 718 mmHg 21%
03:00 +30°C° 0.1 mm 5 m/s 719 mmHg 22%
04:00 +29°C° 0.1 mm 5 m/s 719 mmHg 23%
05:00 +29°C° 0.1 mm 4 m/s 719 mmHg 24%
06:00 +30°C° 0 mm 5 m/s 719 mmHg 22%
07:00 +33°C° 0 mm 5 m/s 719 mmHg 20%
08:00 +35°C° 0 mm 6 m/s 720 mmHg 17%
09:00 +36°C° 0 mm 6 m/s 719 mmHg 16%
10:00 +39°C° 0 mm 6 m/s 719 mmHg 16%
11:00 +40°C° 0 mm 6 m/s 719 mmHg 15%
12:00 +41°C° 0 mm 8 m/s 718 mmHg 14%
13:00 +43°C° 0 mm 9 m/s 718 mmHg 13%
14:00 +43°C° 0 mm 10 m/s 717 mmHg 13%
15:00 +43°C° 0 mm 10 m/s 717 mmHg 13%
16:00 +42°C° 0 mm 10 m/s 717 mmHg 13%
17:00 +42°C° 0 mm 10 m/s 716 mmHg 14%
18:00 +38°C° 0 mm 11 m/s 717 mmHg 19%
19:00 +36°C° 0 mm 12 m/s 718 mmHg 24%
20:00 +32°C° 0 mm 13 m/s 719 mmHg 29%
21:00 +32°C° 0 mm 11 m/s 719 mmHg 29%
22:00 +31°C° 0 mm 10 m/s 719 mmHg 30%
23:00 +31°C° 0 mm 8 m/s 719 mmHg 31%
Voir plus

Nous avons besoin de votre consentement

Meteoprog et ses fournisseurs de services peuvent stocker et accéder à des données personnelles telles que des cookies, des identifiants d'appareils ou d'autres technologies similaires sur votre appareil et traiter ces données pour personnaliser le contenu et les publicités, ainsi que pour fournir des fonctionnalités de médias sociaux et analyser le trafic.

  • Stocker et/ou accéder à des informations sur votre appareil

    Des cookies, des identifiants d'appareils ou d'autres informations peuvent être stockés ou accessibles sur votre appareil aux fins indiquées ci-dessus.

  • Annonces et contenus personnalisés, mesure des annonces et des contenus, connaissance de l'audience et développement de produits

    Les annonces et le contenu peuvent être personnalisés en fonction d'un profil. D'autres données peuvent être ajoutées pour mieux personnaliser les annonces et le contenu. Les performances des publicités et du contenu peuvent être mesurées. Il est possible d'obtenir des informations sur le public qui a vu les publicités et le contenu. Ces données peuvent être utilisées pour développer ou améliorer l'expérience de l'utilisateur, les systèmes et les logiciels.

En cliquant sur "J'accepte", vous autorisez l'utilisation de cookies, des identifiants d'appareils, des balises web ou d'autres technologies similaires. Vos paramètres peuvent être modifiés dans le navigateur de votre appareil.

Dans certains cas, des intérêts légitimes peuvent être invoqués plutôt qu'un consentement. Vous pouvez en savoir plus à ce sujet dans notre Politique de confidentialité et de cookies.